軌道要素
Epoch 2019 Aug. 25.0 TT = JDT 2458720.5
T 2019 Sept. 9.48742 TT Rudenko
q 3.6286157 (2000.0) P Q
z +0.0011890 Peri. 217.62147 -0.42212561 -0.59327869
+/-0.0000015 Node 91.59378 -0.57125560 +0.76118265
e 0.9956854 Incl. 136.70877 -0.70390128 -0.26195680
From 203 observations 2018 May 17-2020 Jan. 21, mean residual 0".5.
|